Weather History for Aqaba, Jordan

Change the Weather History Date:

Monday, November 11, 2013

  Actual Average (LLET) Record (LLET)
Temperature  
Mean Temperature 76 °F -  
Max Temperature 86 °F 81 °F 93 °F (1996)
Min Temperature 66 °F 62 °F 57 °F (2005)
Cooling Degree Days 11    
Growing Degree Days 26 (Base 50)    
Moisture  
Dew Point 53 °F    
Average Humidity 42    
Maximum Humidity 64    
Minimum Humidity 24    
Precipitation  
Precipitation 0.00 in - - ()
Sea Level Pressure  
Sea Level Pressure 29.90 in    
Wind  
Wind Speed 5 mph ()    
Max Wind Speed 13 mph    
Max Gust Speed -    
Visibility 6.1 miles    
Events      
Averages and records for this station are not official NWS values.
T = Trace of Precipitation, MM = Missing Value Source: Averaged Metar Reports

Daily Weather History Graph

Daily Weather History Graph

Search for Another Location

Airport:

Trip Planner

Search our weather history database for the weather conditions in past years. The results will help you decide how hot, cold, wet, or windy it might be!

Date:

Astronomy

Nov. 11, 2013 Rise Set
Actual Time 7:00 AM EEST 5:46 PM EEST
Civil Twilight 6:35 AM EEST 6:11 PM EEST
Nautical Twilight 6:07 AM EEST 6:40 PM EEST
Astronomical Twilight 5:39 AM EEST 7:08 PM EEST
Moon 1:49 PM EEST (11/11) 12:51 AM EEST (11/11)
Length of Visible Light 11h 35m
Length of Day
10h 45m
Waxing Gibbous, 62% of the Moon is Illuminated
Nov 11
Waxing Gibbous
Nov 17
Full
Nov 25
Last Quarter
Dec 3
New
Dec 9
First Quarter

Hourly Weather History & Observations

Time (EEST) Temp. Heat Index Dew Point Humidity Pressure Visibility Wind Dir Wind Speed Gust Speed Precip Events Conditions
12:00 AM 72 °F - 48 °F 31% 29.90 in 6 mi North 6.9 mph - -   Clear
12:00 AM 71.6 °F - 48.2 °F 43% 29.89 in - North 6.9 mph - N/A   Clear
3:00 AM 68 °F - 52 °F 45% 29.90 in 6 mi Calm Calm - -   Clear
3:00 AM 68.0 °F - 51.8 °F 56% 29.89 in - Calm Calm - N/A   Clear
6:00 AM 64 °F - 51 °F 53% 29.90 in 6 mi North 5.8 mph - -   Clear
6:00 AM 64.4 °F - 51.8 °F 64% 29.89 in - North 5.8 mph - N/A   Clear
7:00 AM 68.0 °F - 51.8 °F 56% 29.89 in - North 5.8 mph - N/A   Clear
8:00 AM 68.0 °F - 51.8 °F 56% 29.89 in - North 5.8 mph - N/A   Clear
9:00 AM 70 °F - 50 °F 38% 29.93 in 6 mi North 5.8 mph - -   Clear
9:00 AM 69.8 °F - 50.0 °F 49% 29.92 in - North 5.8 mph - N/A   Clear
10:00 AM 73.4 °F - 50.0 °F 44% 29.92 in - North 8.1 mph - N/A   Clear
11:00 AM 75.2 °F - 50.0 °F 41% 29.92 in - North 9.2 mph - N/A   Clear
12:00 PM 81 °F - 52 °F 26% 29.94 in 6 mi North 11.5 mph - -  
12:00 PM 80.6 °F - 51.8 °F 37% 29.95 in - North 11.5 mph - N/A   Clear
1:00 PM 82.4 °F - 51.8 °F 35% 29.95 in - North 11.5 mph - N/A   Clear
2:00 PM 84.2 °F - 51.8 °F 33% 29.95 in - North 11.5 mph - N/A   Clear
3:00 PM 86.0 °F - 51.8 °F 31% 29.86 in - NNW 12.7 mph - N/A   Clear
5:00 PM 84.2 °F 82.8 °F 53.6 °F 35% 29.86 in 6.2 mi NNW 11.5 mph - N/A   Mostly Cloudy
6:00 PM 85 °F - 54 °F 24% 29.85 in 6 mi North 4.6 mph - -   Mostly Cloudy
6:00 PM 84.2 °F 82.8 °F 53.6 °F 35% 29.86 in 6.2 mi North 4.6 mph - N/A   Mostly Cloudy
7:00 PM 80.6 °F 80.8 °F 57.2 °F 45% 29.89 in 6.2 mi Calm Calm - N/A   Mostly Cloudy
8:00 PM 78.8 °F - 59.0 °F 51% 29.89 in 6.2 mi Calm Calm - N/A   Mostly Cloudy
9:00 PM 82 °F - 55 °F 29% 29.90 in 6 mi Calm Calm - -   Scattered Clouds
9:00 PM 82.4 °F 81.7 °F 55.4 °F 39% 29.92 in 6.2 mi Calm Calm - N/A   Partly Cloudy
10:00 PM 80.6 °F 80.8 °F 57.2 °F 45% 29.92 in 6.2 mi Calm Calm - N/A   Partly Cloudy
11:00 PM 78.8 °F - 57.2 °F 47% 29.92 in 6.2 mi East 6.9 mph - N/A   Partly Cloudy